Wind_Speed
7 8 9 11 12 13 12 12 10 7 4 4 4 6 7 6 3 1 1 2 4 8 8 8 5 5 2 3 3 3 4 2 4 4 4 4 6 2 3 3 5 3 1 6 14
8 8 9 10 10 11 11 9 7 5 2 3 5 6 7 5 1 1 4 3 5 7 6 9 4 8 3 2 3 4 3 6 4 2 3 4 2 5 6 8 3 5 6 18 5
5 4 7 7 8 8 7 7 5 3 2 3 4 6 6 2 1 2 4 3 4 6 5 6 5 2 2 2 0 2 4 3 2 3 2 3 5 3 5 8 6 7 10 14 12
6 7 6 6 6 6 5 4 3 2 1 3 4 5 3 1 3 4 4 4 6 7 5 4 3 3 2 1 2 3 5 3 4 2 5 3 4 5 2 8 9 9 10 17 18
5 6 5 6 6 5 4 4 3 1 1 3 5 4 1 2 1 4 4 5 4 6 6 4 4 2 1 3 5 2 3 5 7 11 6 3 3 4 7 17 17 19 22 18 16
4 5 5 5 4 4 4 3 2 2 2 3 4 2 1 2 2 4 5 6 7 7 7 5 2 1 0 1 0 3 4 8 6 8 2 3 2 2 10 10 16 19 17 16 18
5 5 5 4 4 4 4 3 2 2 2 2 3 2 2 2 1 2 4 5 6 5 2 2 1 2 1 3 3 3 6 7 3 6 3 2 3 7 9 15 16 15 14 15 18
5 5 5 5 4 4 4 3 2 2 2 1 2 2 1 1 2 2 4 4 2 3 2 2 2 2 1 3 6 4 4 4 3 9 5 3 5 14 17 16 13 11 9 12 12
5 5 5 4 4 4 3 2 1 1 1 0 2 1 2 2 1 2 3 2 5 2 2 3 3 3 5 3 5 6 1 1 9 4 4 6 4 13 12 17 12 9 8 9 9
6 5 5 4 3 2 2 2 4 4 3 3 2 3 2 1 2 2 2 3 2 4 4 5 5 3 4 4 3 3 3 2 4 6 7 8 5 6 7 14 8 7 7 7 8
6 6 5 4 4 3 6 5 3 4 2 2 1 2 1 1 2 3 4 3 2 5 3 3 5 2 6 4 3 2 2 4 5 1 4 7 6 4 4 8 8 7 7 7 7
7 7 6 5 5 6 3 4 2 2 5 2 1 2 1 1 2 4 7 3 4 1 1 5 2 4 3 2 1 1 3 5 4 2 3 6 5 4 4 3 4 5 5 5 4
7 6 6 8 8 5 5 4 2 1 5 2 2 1 1 2 1 4 4 1 3 1 3 3 2 3 2 2 4 3 4 2 5 4 5 8 3 3 1 3 3 3 2 1 1
6 7 10 9 5 5 3 2 1 0 4 3 1 1 2 2 3 2 6 2 4 1 1 2 3 2 2 0 2 3 2 2 4 5 2 3 4 6 4 2 2 3 3 3 2
7 11 9 2 6 3 2 1 1 0 2 1 0 0 1 3 2 4 13 4 2 2 4 2 3 3 2 1 2 6 4 5 2 3 3 2 3 3 7 3 1 5 6 5 6
9 9 5 4 4 3 1 1 2 5 3 1 2 2 2 4 2 2 7 9 1 3 4 2 4 2 1 0 2 6 3 5 4 3 1 4 4 5 5 6 2 2 6 6 7
9 6 3 3 2 1 2 3 4 4 2 1 1 2 3 2 3 4 5 7 4 3 5 6 2 4 4 3 4 10 7 4 4 3 5 2 1 3 6 6 6 2 6 8 8
7 6 6 3 1 2 2 4 2 2 1 2 2 2 2 2 4 4 3 3 5 4 3 1 2 5 7 3 2 3 3 4 4 3 5 5 5 2 6 6 4 3 6 7 8
5 5 3 3 2 2 5 3 3 1 1 2 2 2 0 1 3 4 3 2 1 2 3 3 3 5 3 3 2 0 2 2 0 1 1 4 4 2 4 4 2 7 7 8 8
4 2 3 2 2 3 5 3 1 1 2 1 4 1 6 2 2 3 3 2 3 3 2 2 3 1 5 1 3 2 3 1 3 3 5 5 5 5 11 7 6 7 8 8 7
3 3 2 1 1 5 3 4 3 2 1 2 2 2 2 2 1 1 2 2 2 3 4 1 3 3 2 2 1 4 1 4 3 3 4 4 6 5 10 7 4 7 8 6 6
4 3 4 3 4 2 3 1 1 2 5 3 3 2 2 1 3 2 3 1 1 1 2 1 4 4 6 4 3 2 2 3 4 3 1 3 8 3 10 9 5 7 4 6 6
3 1 2 3 3 1 1 3 2 2 3 2 2 2 1 3 1 2 3 1 2 2 5 4 1 2 3 4 3 2 2 4 5 3 6 4 6 5 5 9 9 6 7 7 8
3 2 4 4 1 6 4 2 2 2 2 3 2 2 2 2 2 4 3 3 2 2 5 3 3 5 6 3 2 4 4 4 5 3 3 11 16 23 16 13 17 14 7 9 11
4 1 2 1 4 4 3 3 3 1 2 2 2 0 3 4 3 4 3 3 1 4 2 3 5 4 5 7 4 7 12 9 10 7 8 13 8 18 13 16 14 7 9 13 16
4 4 3 2 1 2 3 3 5 2 3 1 2 3 2 3 5 6 5 4 5 2 5 0 2 3 5 4 2 8 12 11 16 15 16 22 26 20 16 6 7 9 13 18 21
3 3 4 3 2 3 2 3 4 5 0 0 3 4 2 3 3 2 2 2 3 8 6 5 4 2 5 5 7 9 9 13 5 5 9 10 15 5 5 6 8 13 14 19 19
Wind_Direction
220 227 229 237 246 253 261 269 271 273 279 295 310 312 322 330 340 3 329 316 332 339 344 349 46 5 14 42 49 108 68 212 246 172 265 333 6 283 292 321 325 295 337 308 333
232 239 244 249 252 255 259 258 259 264 278 305 316 323 333 343 36 3 336 331 341 347 359 19 8 359 8 17 24 83 116 225 220 226 289 314 301 325 356 330 307 311 324 348 16
201 233 251 249 249 247 243 246 248 235 277 301 317 330 336 357 45 331 9 11 5 5 2 333 327 346 2 40 213 157 202 224 275 250 360 309 313 350 325 322 249 296 337 353 357
224 237 241 237 236 230 227 231 220 224 283 314 328 332 339 82 136 357 10 23 7 356 14 12 33 36 28 268 359 319 259 264 295 327 346 299 305 323 257 250 4 23 44 51 42
216 221 223 223 220 212 209 208 210 233 292 322 337 339 106 52 3 20 24 12 19 18 35 26 49 18 320 330 340 206 307 327 299 297 267 280 266 242 284 51 54 55 50 48 47
180 186 203 204 201 200 199 202 204 230 280 323 346 24 34 98 34 24 24 34 24 40 51 48 113 211 257 282 168 313 291 292 295 309 281 338 316 188 37 77 60 60 52 49 49
157 181 189 189 191 191 198 204 209 234 280 328 358 72 54 168 351 340 352 358 15 33 60 54 59 70 133 323 339 326 336 334 360 331 43 153 11 72 14 70 67 60 59 52 47
176 184 187 189 190 201 205 211 225 246 283 356 21 90 142 355 334 15 353 10 351 330 342 27 20 98 105 304 15 31 45 20 313 359 351 47 268 351 343 87 63 52 46 48 34
192 190 191 197 201 206 210 216 231 239 193 101 70 36 98 63 7 1 14 342 329 335 299 349 52 77 19 64 10 6 276 329 324 73 354 43 356 357 44 80 70 43 33 44 37
197 193 191 196 198 192 192 164 125 115 109 75 47 45 352 341 359 7 357 343 31 342 26 48 47 60 36 65 241 277 331 303 258 321 5 80 66 23 35 79 77 59 36 34 37
193 189 187 182 170 158 139 134 44 11 51 100 164 124 71 346 1 27 359 338 54 50 59 13 53 270 231 197 201 229 234 251 254 257 72 99 97 53 20 61 64 54 47 45 36
180 181 176 164 151 138 117 94 139 163 92 20 80 73 85 82 62 341 360 67 49 19 43 25 247 234 191 130 208 261 275 279 296 327 77 130 94 73 28 58 88 87 57 48 26
168 166 163 143 133 107 95 104 95 126 97 339 294 122 209 82 98 338 31 55 64 39 35 155 238 110 145 47 17 287 231 240 230 330 69 126 154 122 353 63 62 30 357 355 318
157 153 144 135 126 118 78 110 154 175 81 307 9 355 80 118 51 23 21 86 33 84 347 233 312 129 66 47 155 288 199 293 301 35 239 150 284 215 183 97 43 357 308 274 285
140 139 128 97 122 125 118 136 185 74 41 177 311 154 78 85 163 19 38 31 88 317 77 263 23 20 320 215 223 248 317 283 285 211 348 259 142 270 151 111 338 323 304 295 275
138 139 125 102 96 117 142 137 97 48 249 50 60 4 94 16 39 85 23 36 64 61 16 296 292 47 266 345 36 298 347 37 55 97 332 237 156 204 180 171 166 312 323 324 303
136 136 119 76 104 93 121 66 51 131 23 250 102 53 75 2 45 55 50 18 43 82 12 341 0 337 23 358 18 32 36 339 347 359 232 212 269 274 165 164 156 262 311 320 318
129 123 99 71 124 131 121 54 158 142 207 359 49 88 131 14 47 54 73 45 16 42 87 99 244 4 335 63 346 19 121 149 277 271 289 302 245 262 197 177 160 306 309 306 305
129 122 104 53 112 148 75 81 210 216 338 19 45 121 253 23 114 92 64 118 11 336 115 52 273 318 46 353 95 45 39 182 150 29 21 265 282 347 172 196 266 308 311 294 285
137 81 54 59 102 86 75 160 164 335 359 211 183 20 186 260 168 99 183 246 159 61 53 153 329 352 297 29 46 107 160 44 14 294 286 286 275 244 202 214 277 310 313 319 314
115 58 38 332 76 51 126 189 154 87 96 52 164 121 131 173 103 67 114 333 29 55 83 104 113 296 353 54 126 350 356 64 127 147 216 296 261 227 176 178 264 300 285 281 283
102 61 353 163 51 35 120 97 35 352 20 62 102 95 105 66 64 85 204 324 148 125 101 18 132 253 237 285 253 254 175 129 134 228 174 148 270 200 161 177 205 279 304 316 304
104 194 4 153 127 66 226 72 75 52 37 47 101 60 99 130 114 128 137 41 136 120 163 169 233 340 322 352 2 138 146 125 105 92 209 143 261 167 235 266 329 304 286 294 299
88 57 341 48 61 123 133 129 96 17 70 61 112 78 87 115 63 165 150 219 199 142 122 95 178 203 201 191 130 254 213 178 133 140 206 230 278 273 285 309 318 314 281 282 281
33 180 186 8 2 85 91 137 124 187 36 49 41 197 160 165 174 186 142 139 261 206 92 133 227 223 254 245 229 241 246 214 218 200 208 265 245 273 288 300 300 283 293 300 302
112 123 25 103 316 90 7 183 159 175 151 205 188 173 153 184 198 202 149 184 196 153 158 182 257 35 299 348 308 272 262 226 237 240 250 260 273 269 283 297 295 299 302 309 310
73 101 104 311 49 84 217 156 195 137 141 259 199 126 225 236 159 165 127 126 181 166 181 163 140 89 267 346 318 286 249 205 205 196 215 232 250 299 291 281 288 305 308 304 302
Height
816 817 817 817 817 817 818 817 816 816 815 815 814 813 812 811 810 810 810 811 810 809 807 805 805 805 805 806 807 812 840 847 832 830 819 807 811 800 798 801 799 791 791 790 784
815 815 815 816 816 816 816 816 816 815 815 815 815 814 813 811 811 810 811 810 810 809 808 807 808 807 812 810 812 824 845 833 820 813 814 811 810 807 806 808 801 794 790 789 785
814 814 814 814 815 815 815 815 815 816 816 816 815 814 813 812 812 812 811 811 810 810 809 810 810 810 814 813 815 823 834 820 813 810 809 811 811 805 807 811 801 800 797 794 791
814 814 813 814 814 814 815 815 815 816 816 816 816 815 813 813 826 812 812 812 811 811 810 810 811 816 821 822 817 826 817 816 812 808 813 812 807 811 807 804 803 804 805 803 801
813 813 813 814 814 814 815 815 816 816 816 816 816 815 814 815 816 814 813 813 812 811 811 812 817 819 824 823 820 823 818 815 812 812 812 809 813 812 808 816 813 811 809 810 810
811 812 813 814 814 815 815 816 816 817 817 817 816 815 815 821 816 815 814 814 813 812 813 814 817 817 821 822 824 821 820 820 813 812 811 812 812 808 815 818 819 817 820 819 816
811 812 813 813 814 815 815 816 817 817 818 817 816 816 816 818 816 815 815 815 815 815 815 816 816 818 820 824 819 820 826 821 811 814 812 811 816 821 827 823 827 827 826 824 822
811 812 812 813 813 814 815 816 817 817 818 817 817 816 819 816 816 815 815 815 815 816 817 816 816 818 820 819 826 830 832 842 818 817 814 811 837 835 827 828 837 836 833 830 828
811 811 812 813 813 814 815 816 816 817 817 817 818 817 821 816 817 816 816 817 816 817 817 817 816 825 826 837 847 845 848 841 836 822 823 823 846 848 838 834 842 843 840 835 833
811 811 812 812 813 814 815 816 817 817 818 818 818 823 818 820 817 817 817 817 816 817 819 820 829 838 844 848 861 848 847 842 843 830 828 848 856 853 848 842 847 847 845 841 837
810 811 811 812 813 814 815 816 820 822 818 821 821 820 818 818 818 818 817 817 817 822 834 829 843 846 839 836 834 835 841 847 841 830 835 855 857 855 852 850 850 849 847 844 841
810 811 812 813 814 814 815 816 818 819 826 818 818 818 818 817 821 818 817 821 823 834 830 841 845 831 829 829 831 835 842 847 839 831 834 855 858 854 852 850 850 850 848 845 843
809 810 812 813 814 815 815 817 817 818 827 822 819 819 818 819 824 822 819 822 828 833 834 842 832 825 827 836 838 839 841 842 845 840 839 853 859 857 852 850 850 849 847 844 842
810 810 812 813 817 816 817 817 818 818 843 833 825 820 819 819 827 821 821 825 830 836 836 837 828 829 832 836 838 845 831 834 839 846 854 838 865 860 854 852 851 850 849 845 842
810 812 813 815 815 816 818 817 818 819 859 831 825 819 819 824 825 827 825 824 836 836 838 839 834 835 837 836 833 841 832 837 836 845 847 846 859 850 855 853 850 849 846 845 842
811 813 815 816 816 817 817 817 819 846 854 835 825 827 828 827 827 828 832 831 835 836 840 840 833 833 835 832 834 837 837 845 853 858 865 847 847 855 855 852 849 848 846 843 841
813 815 816 816 817 817 817 819 846 857 833 839 835 831 835 837 834 840 852 859 861 851 864 854 842 837 835 839 837 843 858 868 858 864 856 842 849 846 847 848 848 845 845 842 838
814 815 816 817 817 818 819 832 844 841 841 834 835 834 840 840 843 849 856 865 863 863 873 868 857 850 842 844 850 852 860 874 863 869 866 850 848 845 845 844 842 842 844 841 837
815 816 817 818 818 819 826 848 847 844 842 842 837 842 845 842 845 855 864 867 867 866 862 869 860 851 844 844 848 853 865 860 868 875 880 860 845 843 845 846 843 846 843 840 834
816 817 818 818 818 819 837 849 849 844 843 842 846 846 853 849 849 854 861 865 864 863 863 869 872 857 853 847 850 850 856 867 882 870 871 862 857 843 848 849 847 846 842 837 833
817 823 820 819 819 828 846 852 846 843 843 845 847 849 852 852 851 858 862 867 862 865 867 869 875 863 860 860 863 866 865 871 875 883 878 885 856 833 839 842 841 843 839 836 833
818 831 819 819 835 855 851 844 842 846 845 846 849 849 850 853 854 859 863 865 865 866 869 874 885 884 866 860 863 860 862 872 889 876 898 919 874 827 833 836 837 838 833 831 829
823 826 820 819 841 856 848 848 848 847 850 848 850 850 850 854 858 862 867 867 867 868 874 875 886 890 867 868 861 862 864 870 887 903 905 902 856 834 838 833 828 831 831 828 824
823 832 828 830 844 846 848 850 851 849 849 850 851 850 852 856 857 865 868 869 868 869 867 874 888 877 875 859 868 869 869 871 878 917 888 863 832 821 825 830 824 824 829 825 821
827 841 840 846 846 845 845 849 852 852 851 851 854 854 856 861 860 862 867 871 870 867 874 880 884 883 876 874 873 871 865 869 874 876 875 831 847 827 827 827 826 827 824 819 813
830 837 844 849 845 842 849 848 850 852 852 853 855 857 858 858 861 863 865 868 870 871 875 882 883 883 881 872 871 871 858 861 858 857 854 845 838 826 824 829 828 825 820 813 807
829 831 834 851 848 847 849 846 848 851 854 853 853 858 859 859 861 862 865 868 866 872 878 882 887 898 898 885 879 865 840 844 846 844 841 846 823 824 827 828 827 819 816 811 804